TimeAKST,TemperatureF,Dew PointF,Humidity,Sea Level PressureIn,VisibilityMPH,Wind Direction,Wind SpeedMPH,Gust SpeedMPH,PrecipitationIn,Events,Conditions,WindDirDegrees,DateUTC
12:16 AM,26.6,21.2,80,30.12,10.0,Calm,Calm,-,N/A,,Overcast,0,2012-12-08 09:16:00
12:36 AM,26.6,23.0,86,30.13,10.0,Calm,Calm,-,N/A,,Overcast,0,2012-12-08 09:36:00
12:56 AM,26.6,23.0,86,30.13,10.0,Calm,Calm,-,N/A,,Overcast,0,2012-12-08 09:56:00
1:16 AM,26.6,23.0,86,30.14,10.0,Calm,Calm,-,N/A,,Overcast,0,2012-12-08 10:16:00
1:36 AM,26.6,21.2,80,30.14,10.0,Calm,Calm,-,N/A,,Overcast,0,2012-12-08 10:36:00
1:56 AM,26.6,21.2,80,30.13,10.0,Calm,Calm,-,N/A,,Overcast,0,2012-12-08 10:56:00
2:16 AM,28.4,23.0,80,30.14,10.0,Calm,Calm,-,N/A,,Overcast,0,2012-12-08 11:16:00
2:36 AM,26.6,21.2,80,30.14,10.0,Calm,Calm,-,N/A,,Overcast,0,2012-12-08 11:36:00
2:56 AM,26.6,21.2,80,30.15,10.0,North,3.5,-,N/A,,Overcast,360,2012-12-08 11:56:00
3:16 AM,28.4,21.2,74,30.15,10.0,North,3.5,-,N/A,,Overcast,350,2012-12-08 12:16:00
3:36 AM,26.6,21.2,80,30.15,10.0,Calm,Calm,-,N/A,,Overcast,0,2012-12-08 12:36:00
3:56 AM,26.6,21.2,80,30.16,10.0,NNW,3.5,-,N/A,,Overcast,340,2012-12-08 12:56:00
4:16 AM,26.6,21.2,80,30.15,10.0,Calm,Calm,-,N/A,,Overcast,0,2012-12-08 13:16:00
4:36 AM,26.6,21.2,80,30.15,9.0,NW,3.5,-,N/A,,Overcast,320,2012-12-08 13:36:00
4:56 AM,28.4,21.2,74,30.15,5.0,NNW,4.6,-,N/A,,Overcast,340,2012-12-08 13:56:00
5:16 AM,28.4,23.0,80,30.15,5.0,NNW,3.5,-,N/A,,Overcast,340,2012-12-08 14:16:00
5:36 AM,28.4,23.0,80,30.15,6.0,NNW,3.5,-,N/A,,Overcast,330,2012-12-08 14:36:00
5:56 AM,26.6,23.0,86,30.15,8.0,North,3.5,-,N/A,,Overcast,10,2012-12-08 14:56:00
6:16 AM,26.6,23.0,86,30.15,10.0,Calm,Calm,-,N/A,,Overcast,0,2012-12-08 15:16:00
6:56 AM,26.6,21.2,80,30.15,10.0,North,3.5,-,N/A,,Overcast,350,2012-12-08 15:56:00
7:16 AM,26.6,21.2,80,30.15,10.0,NNW,4.6,-,N/A,,Overcast,340,2012-12-08 16:16:00
7:36 AM,26.6,23.0,86,30.15,10.0,Calm,Calm,-,N/A,,Overcast,0,2012-12-08 16:36:00
7:56 AM,26.6,21.2,80,30.15,10.0,North,4.6,-,N/A,,Overcast,360,2012-12-08 16:56:00
8:16 AM,26.6,21.2,80,30.15,10.0,NNW,5.8,-,N/A,,Overcast,340,2012-12-08 17:16:00
8:36 AM,26.6,21.2,80,30.16,10.0,NNW,4.6,-,N/A,,Overcast,330,2012-12-08 17:36:00
8:56 AM,26.6,21.2,80,30.16,10.0,NNW,4.6,-,N/A,,Overcast,330,2012-12-08 17:56:00
9:16 AM,26.6,21.2,80,30.16,10.0,NNW,3.5,-,N/A,,Overcast,340,2012-12-08 18:16:00
9:36 AM,28.4,21.2,74,30.16,10.0,NNW,4.6,-,N/A,,Overcast,340,2012-12-08 18:36:00
9:56 AM,28.4,21.2,74,30.17,10.0,NNW,3.5,-,N/A,,Overcast,330,2012-12-08 18:56:00
10:16 AM,26.6,21.2,80,30.18,10.0,NNW,3.5,-,N/A,,Overcast,340,2012-12-08 19:16:00
10:36 AM,28.4,21.2,74,30.17,10.0,Calm,Calm,-,N/A,,Overcast,0,2012-12-08 19:36:00
10:56 AM,26.6,21.2,80,30.16,10.0,Calm,Calm,-,N/A,,Mostly Cloudy,0,2012-12-08 19:56:00
11:16 AM,28.4,21.2,74,30.15,10.0,Calm,Calm,-,N/A,,Mostly Cloudy,0,2012-12-08 20:16:00
11:36 AM,28.4,21.2,74,30.15,10.0,Calm,Calm,-,N/A,,Partly Cloudy,0,2012-12-08 20:36:00
11:56 AM,28.4,23.0,80,30.15,10.0,NNW,4.6,-,N/A,,Scattered Clouds,340,2012-12-08 20:56:00
12:16 PM,28.4,21.2,74,30.15,10.0,NNW,3.5,-,N/A,,Mostly Cloudy,340,2012-12-08 21:16:00
12:36 PM,28.4,23.0,80,30.15,10.0,NNW,4.6,-,N/A,,Overcast,330,2012-12-08 21:36:00
12:56 PM,28.4,21.2,74,30.15,10.0,NNW,5.8,-,N/A,,Overcast,330,2012-12-08 21:56:00
1:16 PM,28.4,23.0,80,30.15,10.0,NNW,4.6,-,N/A,,Overcast,330,2012-12-08 22:16:00
1:36 PM,28.4,21.2,74,30.14,10.0,NNW,3.5,-,N/A,,Overcast,340,2012-12-08 22:36:00
1:56 PM,28.4,23.0,80,30.13,10.0,NNW,3.5,-,N/A,,Overcast,340,2012-12-08 22:56:00
2:16 PM,28.4,21.2,74,30.12,10.0,NNW,3.5,-,N/A,,Overcast,330,2012-12-08 23:16:00
2:36 PM,28.4,23.0,80,30.10,10.0,NNW,3.5,-,N/A,,Overcast,330,2012-12-08 23:36:00
2:56 PM,28.4,23.0,80,30.09,10.0,NNW,4.6,-,N/A,,Overcast,330,2012-12-08 23:56:00
3:16 PM,28.4,23.0,80,30.08,10.0,NNW,3.5,-,N/A,,Overcast,330,2012-12-09 00:16:00
3:36 PM,28.4,23.0,80,30.07,9.0,NNW,4.6,-,N/A,,Overcast,340,2012-12-09 00:36:00
3:56 PM,28.4,23.0,80,30.06,10.0,NNW,4.6,-,N/A,,Overcast,340,2012-12-09 00:56:00
4:16 PM,28.4,23.0,80,30.05,6.0,North,6.9,-,N/A,,Overcast,350,2012-12-09 01:16:00
4:36 PM,28.4,23.0,80,30.04,3.0,North,5.8,-,N/A,,Overcast,350,2012-12-09 01:36:00
4:56 PM,28.4,23.0,80,30.03,4.0,North,6.9,-,N/A,,Overcast,350,2012-12-09 01:56:00
5:16 PM,28.4,23.0,80,30.03,3.0,North,5.8,-,N/A,,Overcast,350,2012-12-09 02:16:00
5:36 PM,28.4,23.0,80,30.02,5.0,NNW,4.6,-,N/A,,Overcast,330,2012-12-09 02:36:00
5:56 PM,28.4,23.0,80,30.00,4.0,NNW,3.5,-,N/A,,Overcast,330,2012-12-09 02:56:00
6:16 PM,28.4,23.0,80,29.98,2.5,NNW,3.5,-,N/A,,Overcast,340,2012-12-09 03:16:00
6:36 PM,28.4,23.0,80,29.97,2.0,NW,6.9,-,N/A,,Overcast,320,2012-12-09 03:36:00
6:56 PM,28.4,23.0,80,29.94,4.0,North,4.6,-,N/A,,Mostly Cloudy,350,2012-12-09 03:56:00
7:16 PM,28.4,23.0,80,29.91,3.0,North,3.5,-,N/A,,Overcast,350,2012-12-09 04:16:00
7:36 PM,28.4,23.0,80,29.91,2.5,NNW,6.9,-,N/A,,Overcast,330,2012-12-09 04:36:00
7:56 PM,28.4,24.8,86,29.91,1.0,NNW,6.9,-,N/A,,Overcast,340,2012-12-09 04:56:00
8:16 PM,28.4,24.8,86,29.90,1.2,NNW,5.8,-,N/A,,Overcast,330,2012-12-09 05:16:00
8:36 PM,28.4,24.8,86,29.87,1.2,NNW,5.8,-,N/A,,Overcast,340,2012-12-09 05:36:00
8:56 PM,28.4,24.8,86,29.84,1.2,NNW,6.9,-,N/A,,Overcast,340,2012-12-09 05:56:00
9:16 PM,28.4,24.8,86,29.81,1.2,Calm,Calm,-,N/A,,Overcast,0,2012-12-09 06:16:00
9:36 PM,30.2,24.8,80,29.80,2.5,NNW,4.6,-,N/A,,Overcast,340,2012-12-09 06:36:00
9:56 PM,28.4,24.8,86,29.78,2.0,NNW,5.8,-,N/A,,Overcast,330,2012-12-09 06:56:00
10:16 PM,28.4,26.6,93,29.77,0.8,NNW,5.8,-,N/A,,Overcast,340,2012-12-09 07:16:00
10:36 PM,30.2,26.6,86,29.77,1.0,Calm,Calm,-,N/A,,Overcast,0,2012-12-09 07:36:00
10:56 PM,30.2,26.6,86,29.75,1.8,North,4.6,-,N/A,,Overcast,350,2012-12-09 07:56:00
11:16 PM,30.2,26.6,86,29.74,1.2,NNW,5.8,-,N/A,,Overcast,330,2012-12-09 08:16:00
11:36 PM,30.2,26.6,86,29.73,1.5,NNW,3.5,-,N/A,,Overcast,330,2012-12-09 08:36:00
11:56 PM,30.2,26.6,86,29.73,1.2,North,3.5,-,N/A,,Overcast,350,2012-12-09 08:56:00